Location: Tumbler Ridge
(55.1167°N, 121.0000°W)
Time: 12:39:03
(UTC-07:00)

Daily predictions for brighter satellites

Satellite Brightness Start Highest point End
(mag) Time Altitude Azimuth Time Altitude Azimuth Time Altitude Azimuth
Spot 2 Rocket 3.6 20:47:37 10° SSE 20:52:44 88° ENE 20:57:52 10° NNW
COSMOS 2428 3.0 20:49:17 10° S 20:54:45 48° ESE 21:00:15 10° NE
Cosmos 1408 3.1 20:51:37 10° N 20:55:08 43° ENE 20:58:39 10° SE
Cosmos 1844 Rocket 3.7 20:49:46 10° NW 20:55:11 46° WSW 21:00:34 10° S
SL-16 R/B 3.3 20:50:04 10° WSW 20:55:36 50° NW 21:01:09 10° NNE
Cosmos 1844 4.4 20:50:16 10° NW 20:55:49 56° WSW 21:01:23 10° SSE
NOSS 2-1 (C) 4.1 20:53:27 10° S 20:56:43 30° ESE 21:00:29 10° ENE
ATLAS 2AS CENTAUR R/B 3.3 20:48:53 10° NW 20:56:54 68° SW 21:04:20 10° SSE
NOSS 2-1 (D) 4.0 20:54:22 10° S 20:57:40 31° ESE 21:01:29 10° ENE
ERS-2 3.8 20:54:24 10° SSW 20:57:48 35° W 21:01:14 10° NNW
Cosmos 2333 4.4 20:52:29 10° S 20:57:56 52° ESE 21:03:22 10° NE
Cosmos 2341 Rocket 4.2 20:51:58 10° SSE 20:58:08 54° E 21:04:16 10° NNE
SJ-11-01 4.5 20:54:10 10° SSE 20:58:50 78° WSW 21:03:34 10° NNW
USA 186 3.3 21:01:57 10° SSW 21:03:55 25° W 21:05:56 10° NW
Terra 3.6 21:01:48 10° E 21:04:58 18° NE 21:08:10 10° N
Genesis I 4.0 21:02:16 10° NW 21:06:15 50° SW 21:10:12 10° SSE
Lacrosse 4 Rocket 3.9 21:03:00 10° W 21:06:31 25° NNW 21:10:06 10° NNE
Lacrosse 5 2.2 21:01:38 10° W 21:06:43 71° N 21:11:48 10° E
ATLAS CENTAUR R/B 2.6 21:05:16 10° SSE 21:07:45 17° ESE 21:10:18 10° ENE
Cosmos 1666 Rocket 4.5 21:04:05 10° NNW 21:08:29 53° W 21:12:50 10° S
Meteor 2-21 4.5 21:02:50 10° S 21:09:00 85° E 21:15:15 10° NNE
CZ-3B R/B 4.0 21:08:12 10° WSW 21:09:14 14° SW 21:10:10 10° S
NOSS 7 (D) 4.3 21:06:53 10° SSW 21:10:02 54° SE 21:13:16 10° ENE
Cosmos 2237 Rocket 3.1 21:06:41 10° SSE 21:11:16 27° ESE 21:15:54 10° NE
NOSS 7 (E) 4.1 21:08:34 10° SW 21:11:34 68° SE 21:14:49 10° NE
Cosmos 2219 Rocket 2.5 21:06:31 10° S 21:11:54 46° ESE 21:17:17 10° NE
Cosmos 2322 Rocket 3.7 21:07:25 10° WSW 21:12:50 43° NW 21:18:16 10° NNE
Cosmos 2278 Rocket 2.3 21:07:10 10° NW 21:12:52 82° WSW 21:18:34 10° SSE
SPOT 5 3.7 21:10:11 10° ESE 21:14:13 31° ENE 21:18:06 10° N
Cosmos 1933 Rocket 3.5 21:10:10 10° N 21:14:36 76° ENE 21:18:59 10° SSE
SPOT 1/Viking Rocket 4.4 21:12:04 10° SE 21:16:47 35° ENE 21:21:30 10° N
YAOGAN 6 4.4 21:15:13 10° SSW 21:18:30 32° W 21:21:51 10° NNW
Cosmos 2366 rocket 4.5 21:14:28 10° SSE 21:20:15 42° E 21:26:08 10° NNE
MetOp-A 4.2 21:15:45 10° SSE 21:21:04 72° ENE 21:26:26 10° NNW
NOSS 0 Rocket 4.4 21:17:37 10° S 21:23:15 38° ESE 21:28:57 10° NE
Cosmos 407 Rocket 3.7 21:18:27 10° NNW 21:23:34 60° ENE 21:28:14 12° SE
ATLAS 5 CENTAUR R/B 3.2 21:19:09 10° NW 21:24:10 40° NNE 21:29:51 10° E
H-2A R/B 2.1 21:20:02 10° SSE 21:25:00 61° ENE 21:29:54 10° N
NOSS 3-4 (A) 3.8 21:20:33 10° NW 21:27:23 88° NE 21:34:10 13° SE
NOSS 3-4 (C) 3.8 21:20:39 10° NW 21:27:29 87° NE 21:34:16 13° SE
NOSS 2-1 (E) 3.6 21:24:16 10° SSW 21:27:54 48° SE 21:32:17 10° NE
Cosmos 1340 3.5 21:24:50 10° SSW 21:28:35 56° WNW 21:32:20 10° N
SL-8 Rocket 4.1 21:24:12 10° S 21:30:23 61° E 21:36:34 10° NNE
Cosmos 1151 Rocket 3.0 21:29:37 10° S 21:33:49 61° E 21:38:05 10° NNE
Cosmos 1825 2.2 21:30:10 10° NNW 21:34:00 84° W 21:37:48 10° S
ERS-1 Rocket 3.0 21:30:18 10° SSE 21:35:13 68° ENE 21:40:14 10° NNW
Cosmos 1869 Rocket 4.0 21:32:15 10° N 21:36:32 46° ENE 21:39:55 15° SE
NOSS 3-3 (A) 4.2 21:34:22 10° SSW 21:40:21 53° SE 21:47:00 10° NE
NOSS 3-3 (C) 4.2 21:34:29 10° SSW 21:40:27 53° SE 21:47:06 10° NE
Cosmos 676 Rocket 4.3 21:36:04 10° NNW 21:41:17 56° NE 21:45:23 16° SE
USA 267 4.3 21:37:05 10° E 21:41:46 20° SE 21:46:26 10° S
Helios 1B rocket 3.7 21:45:54 10° NE 21:49:12 22° E 21:50:43 18° ESE
Cosmos 44 3.8 21:44:44 10° WSW 21:49:20 64° NW 21:54:16 10° NE
Cosmos 1733 Rocket 4.5 21:45:57 10° N 21:49:36 24° ENE 21:52:02 16° ESE
Cosmos 1869 3.4 21:45:59 10° S 21:49:55 56° E 21:53:53 10° NNE
Cosmos 405 2.9 21:46:39 10° NNW 21:50:11 76° ENE 21:52:43 18° SSE
Cosmos 2228 Rocket 3.1 21:50:04 10° SSW 21:54:28 85° W 21:58:55 10° N
NOSS 7 (H) 4.4 21:51:17 10° SW 21:54:36 81° NW 21:58:08 10° NE
CARTOSAT-1 4.4 21:51:58 18° ESE 21:54:38 36° ENE 21:58:37 10° N
Cosmos 2098 Rocket 2.9 21:52:41 10° S 21:57:10 59° E 22:00:46 10° NNE
Cosmos 2056 Rocket 4.1 21:53:20 10° S 21:58:17 37° ESE 22:03:13 10° NE
Cosmos 1515 Rocket 3.7 21:54:49 10° SSW 21:59:18 78° WNW 22:03:47 10° N
SL-16 R/B 3.1 21:56:50 17° SSE 22:00:00 27° ESE 22:04:40 10° NE
SL-19 R/B 4.4 21:55:49 17° SE 22:00:10 68° ENE 22:05:47 10° NNW
Cosmos 864 Rocket 4.4 21:56:40 10° S 22:02:46 74° E 22:08:54 10° NNE
USA 245 2.2 22:03:16 27° S 22:04:30 75° WSW 22:06:51 10° NNW
Helios 1A 3.0 22:02:58 18° SSE 22:06:06 89° W 22:10:20 10° NNW
Cosmos 1633 4.2 22:03:27 10° NNE 22:06:12 20° ENE 22:07:26 17° E
GEOS 3 Rocket 4.2 22:03:42 10° ENE 22:08:39 36° SE 22:13:30 10° S
Cosmos 44 Rocket 3.8 22:03:56 10° WSW 22:08:45 64° NW 22:13:44 10° NE
Cosmos 1943 Rocket 3.4 22:04:24 10° NNW 22:09:23 33° NE 22:13:38 13° E
Meteor 1-4 Rocket 4.2 22:08:03 10° NNE 22:10:46 20° ENE 22:11:55 18° E
Cosmos 1190 Rocket 4.3 22:07:43 10° NNW 22:12:59 65° WSW 22:16:58 17° S
ARGOS 3.8 22:08:00 10° S 22:13:12 52° W 22:18:29 10° NNW
SL-08 RB Rocket 4.2 22:09:11 12° S 22:13:14 57° W 22:17:40 10° NNW
Cosmos 1624 Rocket 4.2 22:10:33 10° S 22:15:32 50° ESE 22:20:34 10° NE
Resurs 01 Rocket 4.3 22:13:24 10° SW 22:16:09 16° W 22:18:54 10° NW
USA 234 3.2 22:15:12 18° ESE 22:20:19 80° SSW 22:26:55 10° WNW
RESURS DK-1 3.7 22:18:55 10° NNW 22:22:41 31° NE 22:25:06 18° E
Cosmos 2297 4.0 22:17:22 10° NW 22:22:58 62° WSW 22:26:51 20° SSE
CZ-2C R/B 3.5 22:20:42 23° ESE 22:23:09 41° ENE 22:27:42 10° N
Cosmos 1140 Rocket 3.4 22:18:07 10° NNW 22:23:22 89° ENE 22:26:27 25° SSE
Landsat 7 3.8 22:21:25 23° SSE 22:24:23 83° ENE 22:29:11 10° NNW
Cosmos 2344 4.3 22:20:44 18° SSE 22:25:05 30° ESE 22:32:13 10° NE
Cosmos 1441 Rocket 3.2 22:24:05 29° SSE 22:25:42 54° E 22:29:23 10° NNE
Cosmos 1954 Rocket 4.0 22:21:37 10° NNW 22:26:54 85° WSW 22:29:59 25° SSE
Cosmos 1980 3.6 22:21:14 10° SSW 22:26:56 83° ESE 22:32:39 10° NE
Cosmos 1862 3.6 22:23:14 10° NNW 22:27:17 65° W 22:29:49 21° S
Cosmos 2360 Rocket 4.1 22:22:37 10° W 22:27:37 32° NW 22:32:39 10° NNE
Cosmos 1455 4.4 22:24:21 10° SW 22:27:39 26° WNW 22:31:00 10° N
Cosmos 1727 Rocket 4.4 22:22:38 10° NNW 22:28:44 61° W 22:34:28 12° S
Cosmos 1000 Rocket 4.4 22:23:27 10° N 22:29:41 80° ENE 22:33:51 22° SSE
Cosmos 2333 Rocket 2.6 22:27:57 10° SW 22:33:36 68° NW 22:39:16 10° NNE
Cosmos 2369 Rocket 2.7 22:28:00 10° NNW 22:33:37 52° NE 22:37:01 23° ESE
DMSP B5D2-2 4.0 22:30:58 10° NNE 22:36:13 67° ESE 22:39:54 20° S
IGS 5A 3.4 22:34:24 31° SSE 22:36:20 80° ENE 22:40:32 10° NNW
SeaSat 1 3.9 22:35:23 14° E 22:38:53 30° NE 22:43:10 10° NNW
COSMOS 2428 3.9 22:33:37 10° WSW 22:39:07 46° NW 22:44:39 10° NNE
Meteor 2-10 Rocket 3.9 22:34:05 10° SSW 22:39:50 81° WNW 22:45:44 10° NNE
Spot 1 4.5 22:37:02 24° S 22:40:01 74° WSW 22:44:45 10° NNW
Cosmos 1437 Rocket 2.8 22:36:25 10° N 22:40:15 63° ENE 22:41:29 39° SE
Meteor 1-29 3.2 22:37:15 10° NNE 22:40:33 46° E 22:40:57 44° SE
Cosmos 1821 Rocket 4.1 22:37:41 23° SSE 22:41:37 58° E 22:47:47 10° NNE
Terra 1.8 22:39:40 30° SSE 22:42:05 83° ENE 22:46:53 10° NNW
Cosmos 389 Rocket 4.2 22:41:18 10° NNE 22:43:53 19° ENE 22:44:29 19° ENE
ATLAS CENTAUR R/B 1.1 22:42:24 10° SW 22:46:09 84° NW 22:50:10 10° NE
Lacrosse 4 Rocket 4.4 22:44:04 10° NW 22:46:40 15° N 22:49:16 10° NNE
NOSS 2-1 (C) 4.2 22:43:10 10° WSW 22:46:59 55° NNW 22:51:45 10° NE
NOSS 2-1 (D) 4.3 22:44:09 10° WSW 22:47:58 54° NNW 22:52:44 10° NE
Lacrosse 5 1.8 22:44:48 10° WNW 22:49:55 86° SSW 22:52:35 29° ESE
Cosmos 2123 Rocket 4.1 22:43:47 10° N 22:50:08 70° ENE 22:53:32 29° SSE
H-2A R/B 4.0 22:49:20 16° E 22:51:22 21° NE 22:54:43 10° N
SAR-Lupe-4 3.9 22:50:53 43° ESE 22:51:38 52° ENE 22:55:09 10° N
Cosmos 1862 Rocket 4.3 22:51:02 33° ESE 22:51:51 36° E 22:55:53 10° NNE
SPOT 5 3.5 22:49:18 20° SSW 22:52:13 45° W 22:56:30 10° NNW
Cosmos 405 Rocket 2.7 22:51:18 30° SSW 22:53:09 85° WNW 22:57:08 10° NNE
Cosmos 2237 Rocket 2.4 22:49:15 10° SW 22:54:52 74° NW 23:00:33 10° NNE
ALOS 2 4.4 22:54:07 17° E 22:55:52 21° ENE 22:59:11 10° N
Cosmos 2219 Rocket 3.3 22:50:28 10° WSW 22:55:55 47° NW 23:01:23 10° NNE
SPOT 1/Viking Rocket 4.2 22:52:36 20° SSW 22:56:04 50° W 23:01:10 10° NNW
Cosmos 2278 Rocket 4.3 22:52:21 10° WNW 22:56:08 19° W 22:59:55 10° SW
CZ-2C R/B 3.5 22:52:22 10° NNE 22:57:06 31° E 22:58:19 28° ESE
Cosmos 2098 4.3 23:03:01 55° SW 23:03:35 74° WNW 23:06:59 10° N
Cosmos 1420 Rocket 4.4 23:02:37 35° SE 23:04:03 44° ESE 23:09:06 10° NE
Meteor 1-20 Rocket 4.1 22:59:17 10° NNW 23:04:47 76° ENE 23:07:07 36° SSE
H-2A R/B 3.7 23:00:37 10° SSW 23:04:49 26° W 23:08:58 10° NW
ATLAS 5 CENTAUR R/B 2.3 23:03:53 10° NW 23:09:31 83° NE 23:12:44 30° SE
NOSS 0 Rocket 4.5 23:03:24 10° SW 23:09:32 61° NW 23:15:43 10° NNE
CZ-4C R/B 3.2 23:11:58 27° ESE 23:11:58 27° ESE 23:16:43 10° ENE
Cosmos 1535 Rocket 4.5 23:08:51 28° S 23:12:25 77° E 23:18:49 10° NNE
BREEZE M DEB (TANK) 3.6 23:01:00 10° WSW 23:13:06 52° S 23:14:49 36° SE
Cosmos 1933 3.4 23:11:42 36° SSW 23:13:18 74° WNW 23:17:24 10° N
Cosmos 1707 Rocket 3.9 23:11:15 25° SSW 23:13:38 63° WNW 23:17:58 10° N
YAOGAN 11 4.4 23:12:07 35° SSW 23:13:40 57° WSW 23:17:57 10° NNW
Cosmos 921 Rocket 4.0 23:15:45 30° E 23:15:45 30° E 23:19:19 10° NE
ASTRO F (AKARI) 4.3 23:12:36 10° NNE 23:16:08 90° E 23:16:31 69° SSW
Sich 1 Rocket 4.0 23:14:42 10° N 23:19:13 51° ENE 23:20:20 41° ESE
Helios 1B rocket 3.1 23:20:44 10° N 23:24:46 53° WNW 23:27:05 23° SW
USA 267 3.3 23:19:27 10° ENE 23:25:52 54° SE 23:32:15 10° SW
Cosmos 1733 Rocket 3.6 23:23:25 10° NNW 23:27:44 53° W 23:29:08 37° SSW
Cosmos 1605 Rocket 4.1 23:29:05 36° SSE 23:31:44 67° E 23:38:06 10° NNE
Meteor 1-11 Rocket 4.1 23:30:57 10° N 23:36:33 52° ENE 23:38:30 36° ESE
Okean 2 Rocket 3.8 23:34:03 10° N 23:38:17 41° ENE 23:39:05 37° E
Cosmos 2056 Rocket 4.4 23:35:04 10° SW 23:40:20 50° NW 23:45:36 10° NNE
Cosmos 1782 3.0 23:40:24 53° E 23:40:24 53° E 23:44:17 10° NNE
Cosmos 1452 Rocket 3.4 23:38:48 34° SSW 23:41:10 88° ESE 23:46:27 10° NNE
Cosmos 1633 3.2 23:37:54 10° NNW 23:41:21 44° W 23:41:39 43° WSW
CZ-4 R/B 4.4 23:37:15 10° NNE 23:41:49 41° E 23:42:18 40° ESE
Cosmos 1447 Rocket 4.4 23:36:07 10° N 23:42:19 87° E 23:44:40 41° SSE
SL-16 R/B 2.4 23:38:36 13° SW 23:43:39 73° NW 23:49:21 10° NNE
Cosmos 1536 4.0 23:40:21 10° N 23:43:56 30° ENE 23:44:20 29° E
Cosmos 2242 Rocket 3.6 23:43:15 47° SSW 23:44:26 74° WNW 23:48:53 10° N
Meteor 1-4 Rocket 3.2 23:42:44 10° NNW 23:46:05 42° W 23:46:11 42° WSW
GEOS 3 Rocket 3.9 23:41:36 10° NE 23:47:00 73° NW 23:52:19 10° WSW
Cosmos 1782 Rocket 3.6 23:42:49 10° N 23:47:19 73° ENE 23:48:01 60° SE
Mayak 0.2 23:48:01 10° NE 23:51:15 25° E 23:51:15 25° E
Cosmos 1943 Rocket 2.1 23:48:06 10° NW 23:53:38 73° WSW 23:55:09 48° S
